Helicity
59 55 50 45 44 44 51 50 48 51 53 51 53 52 50 50 55 64 76 94 110 119 129 130 151 147 144 161 187 160 119 107 111 116 156 184 178 172 108 88 80 77 79
60 57 53 53 60 56 53 51 54 59 65 63 59 55 57 57 56 60 70 79 97 112 123 132 140 127 127 156 178 158 126 106 90 102 139 173 183 178 180 167 175 150 102
67 64 65 67 63 55 58 61 62 59 62 63 63 64 69 69 69 72 72 76 79 91 108 115 122 128 127 125 121 115 104 96 87 98 124 134 160 185 156 136 147 177 207
71 78 74 71 63 66 67 64 62 63 66 71 75 78 77 83 88 94 90 86 87 87 90 107 104 113 118 117 114 104 91 80 79 83 100 133 140 159 160 121 103 129 155
82 82 81 78 74 70 66 63 65 61 63 77 82 83 91 96 98 102 103 95 96 95 97 98 101 99 96 96 94 87 80 77 71 73 77 90 121 134 129 146 106 117 129
84 92 86 81 73 72 75 72 69 66 62 70 73 83 102 111 106 113 103 94 101 102 104 111 103 94 94 84 75 67 64 63 61 55 60 71 82 101 115 126 90 77 102
97 95 88 81 82 84 76 73 72 78 77 80 80 105 109 107 154 117 96 96 117 126 122 107 99 92 85 91 89 76 54 47 51 55 54 56 62 78 90 102 109 68 53
97 90 93 94 85 82 85 84 81 71 70 86 91 88 123 101 97 94 102 113 115 104 114 87 71 62 64 69 68 82 85 75 63 55 55 50 50 56 67 77 73 73 55
97 101 100 97 97 90 88 80 77 88 95 87 90 84 104 129 84 77 91 92 99 86 79 59 59 76 62 56 67 86 105 105 79 62 55 50 41 40 54 63 70 54 44
116 107 109 107 102 89 88 92 94 90 86 96 77 90 87 92 111 102 66 69 75 62 56 53 62 73 71 79 92 129 163 156 142 117 81 58 47 48 39 40 55 66 62
123 116 114 111 109 113 113 103 96 95 90 88 83 82 83 84 88 91 106 72 65 56 46 54 43 54 72 70 81 112 124 132 145 135 113 97 72 61 56 53 57 66 74
132 130 132 135 135 132 124 119 111 100 87 81 76 70 68 76 91 85 103 82 60 27 47 17 23 36 52 80 92 78 77 78 74 83 99 102 97 117 95 77 76 73 73
127 133 140 144 150 142 129 115 109 101 91 81 70 63 57 57 69 71 73 73 78 43 -4 -24 -31 -12 32 58 55 52 58 78 89 88 87 92 107 118 167 185 107 91 99
135 149 162 161 149 136 130 119 113 104 91 79 65 62 70 73 82 84 102 97 83 67 33 -6 10 39 42 66 38 59 46 60 75 84 93 98 92 89 110 137 162 145 107
156 160 156 150 144 139 134 127 116 102 88 82 75 77 78 55 69 96 100 100 97 78 54 64 47 56 68 42 24 39 62 87 78 71 80 93 101 94 89 102 117 134 126
160 159 153 149 147 139 130 125 118 107 101 95 88 63 36 56 100 114 106 109 108 98 116 93 65 55 39 35 29 22 32 52 63 83 105 89 78 94 99 101 102 100 95
148 148 148 146 139 131 132 132 125 116 104 95 83 55 43 94 113 111 116 112 109 123 128 85 80 53 38 28 29 26 24 30 42 49 59 76 107 107 105 96 89 96 100
142 146 148 145 138 140 138 129 128 121 111 100 72 78 81 125 109 97 109 101 107 113 132 81 72 72 58 51 42 38 33 30 34 33 47 56 68 76 88 94 95 99 102
140 147 146 141 146 144 136 132 123 111 111 98 78 90 106 108 112 113 114 118 124 130 139 139 102 91 81 73 70 55 39 33 27 27 31 39 57 69 69 64 73 77 83
138 139 145 143 149 147 133 118 109 106 100 95 96 115 109 108 110 102 115 116 129 139 140 144 125 107 93 73 68 67 75 67 50 37 27 23 20 34 60 81 80 62 53
140 143 143 150 154 143 120 100 97 97 91 93 110 124 115 103 79 94 142 138 147 156 162 157 146 124 98 90 85 80 73 63 67 64 42 29 32 49 66 69 76 98 97
152 154 163 157 141 129 90 77 89 105 113 120 131 123 123 106 105 76 80 84 133 175 161 164 142 120 82 82 83 86 82 70 53 29 6 46 52 54 64 69 71 72 78
156 159 149 138 127 113 89 91 96 123 135 133 138 140 141 155 129 157 150 146 141 106 94 121 113 98 83 67 71 75 65 66 76 69 43 54 31 66 71 73 33 58 56
142 137 130 124 122 115 89 97 101 130 149 145 143 131 131 128 142 143 156 159 144 130 116 120 101 80 73 72 74 75 80 94 93 91 81 72 54 66 51 59 33 32 45
132 135 129 120 119 114 95 105 129 143 137 130 140 135 127 125 96 86 120 117 104 97 83 50 40 31 29 21 48 81 103 106 89 101 93 109 69 62 53 42 37 6 31
123 122 126 129 126 130 113 118 130 146 130 133 111 116 97 96 72 62 83 81 84 72 68 70 79 74 68 71 52 85 114 121 123 92 81 89 70 62 21 22 12 45 81
Wind_Speed
40 42 45 47 49 50 52 54 54 55 55 55 52 50 50 47 44 40 39 43 46 48 47 44 43 47 48 47 46 46 46 47 48 50 52 54 50 47 43 44 46 48 51
40 42 45 47 49 51 52 53 54 55 54 54 53 52 48 45 42 39 38 39 45 46 45 43 42 42 45 48 49 49 49 49 49 51 53 54 52 49 42 38 37 37 40
40 42 45 48 49 50 52 53 53 52 52 52 53 52 49 46 40 36 34 35 40 43 44 44 44 45 46 47 49 49 49 49 51 52 52 54 54 53 48 43 41 40 40
39 43 46 48 49 50 52 53 54 55 55 55 57 53 51 45 36 33 32 32 35 39 41 43 45 46 47 47 48 50 50 51 51 51 53 53 53 54 54 50 43 43 43
39 42 45 47 49 50 52 54 53 55 58 60 58 54 50 48 39 38 37 36 36 38 40 41 43 45 48 50 50 51 52 53 53 53 52 52 52 52 53 53 50 50 50
38 42 44 46 48 51 52 54 55 55 53 60 57 55 50 47 41 40 40 38 38 40 42 43 43 44 48 52 54 55 55 55 54 53 53 52 52 52 52 52 47 48 51
39 40 43 45 47 50 51 52 53 55 55 61 56 53 47 44 47 45 44 40 39 41 43 45 47 48 49 52 55 58 58 57 56 56 55 54 53 53 52 51 51 51 47
38 39 41 44 46 48 50 51 54 55 54 59 59 55 56 50 45 49 45 44 43 43 50 50 54 55 55 55 55 56 57 58 60 59 58 57 56 55 53 51 49 50 45
37 37 38 41 43 46 49 50 52 54 56 54 55 54 57 56 60 46 46 45 48 52 57 58 57 60 59 58 56 54 54 55 58 60 61 60 58 56 55 53 53 51 50
37 35 37 39 41 43 47 50 49 51 52 55 51 51 49 51 57 60 49 48 53 62 60 57 59 57 56 52 51 54 57 58 58 58 60 63 62 59 58 56 55 55 52
37 36 35 37 39 43 45 47 49 50 50 52 53 52 50 49 49 52 65 59 63 58 59 63 59 56 53 50 49 56 63 65 66 65 64 63 64 63 60 59 59 59 59
37 36 36 37 40 43 45 47 47 48 49 49 49 50 52 54 57 57 62 65 66 62 64 57 60 55 55 49 56 62 66 68 68 69 70 69 68 68 65 63 61 60 58
37 36 37 39 41 41 44 44 45 46 47 49 50 51 50 51 51 52 57 64 64 67 62 61 55 55 52 61 65 71 71 71 72 72 72 71 71 71 73 70 67 65 63
36 36 38 38 40 41 42 42 44 45 47 48 50 51 52 52 54 55 57 63 70 67 71 62 57 55 55 67 78 77 73 72 73 72 72 72 72 72 73 75 75 73 70
38 37 38 39 39 40 41 43 45 47 48 51 53 53 55 58 59 59 60 61 65 75 79 62 61 54 66 73 70 72 71 74 75 72 71 71 71 71 72 73 74 76 78
37 37 37 38 39 40 41 44 48 49 52 52 56 59 61 61 60 58 57 55 55 61 71 65 66 72 71 71 69 69 71 73 71 69 70 71 71 71 72 73 74 74 75
37 37 38 39 39 41 44 47 50 52 54 58 62 64 65 59 58 55 51 50 53 53 64 71 66 70 72 71 71 69 69 69 70 70 70 70 71 72 74 75 75 75 76
38 38 39 39 42 45 47 49 52 54 56 61 67 65 62 56 52 49 47 50 50 52 58 71 69 68 70 69 71 73 69 68 69 69 71 72 74 74 74 75 76 77 78
40 40 40 43 46 48 49 50 53 57 59 64 65 62 59 55 56 52 50 51 51 52 53 60 69 65 69 70 74 69 69 69 67 70 71 75 77 77 76 75 76 77 77
41 42 44 45 47 48 51 56 59 61 65 67 68 66 62 59 59 60 58 57 58 59 60 63 67 70 71 69 71 77 79 73 78 71 75 76 77 77 77 76 78 78 80
44 45 46 47 49 54 58 61 64 67 71 72 71 68 67 67 66 65 67 66 64 66 67 70 72 71 71 72 75 76 81 83 84 81 83 78 77 77 77 79 79 82 85
47 47 49 52 56 59 62 66 70 73 74 75 77 78 77 76 75 74 71 70 69 71 73 74 75 75 75 73 74 79 82 87 91 77 80 91 86 89 81 79 80 86 88
48 51 54 57 61 64 69 74 78 78 78 81 83 86 88 85 84 83 80 77 74 72 72 75 78 75 77 74 75 81 81 83 87 82 89 102 89 92 81 83 81 85 86
52 56 60 64 69 72 77 80 84 84 84 85 85 88 89 91 86 84 83 80 77 74 71 70 71 74 73 72 71 74 79 80 78 84 82 100 85 86 83 78 80 81 80
59 62 66 70 73 77 80 84 84 83 84 87 86 86 87 88 87 84 80 80 79 76 69 68 69 71 69 67 71 75 74 81 93 89 79 82 79 77 77 79 77 73 70
64 67 70 71 75 81 81 81 82 81 85 88 88 87 85 83 82 77 72 72 75 73 70 70 68 67 65 67 68 68 74 81 81 89 67 63 65 67 77 63 56 52 52
Wind_Direction
6 6 5 5 7 8 7 6 5 4 4 4 6 4 2 1 1 1 359 356 349 342 340 341 334 325 320 322 321 321 322 322 320 313 304 302 307 308 307 301 296 290 284
3 2 2 3 3 3 4 3 2 2 2 3 2 1 1 0 359 360 360 358 352 347 347 346 344 337 325 317 316 317 318 317 316 313 306 301 304 306 311 315 315 309 299
358 359 359 358 359 0 0 0 0 2 1 0 359 358 359 358 0 2 3 2 357 352 349 346 343 336 331 323 315 315 315 315 313 310 310 303 300 301 303 304 306 308 306
356 356 355 356 357 358 358 357 358 357 357 357 354 355 356 359 1 4 5 4 0 354 353 350 343 339 333 328 322 314 313 313 311 310 307 306 302 299 298 297 301 302 301
354 354 354 354 355 356 355 356 357 357 354 353 353 355 357 358 2 1 359 357 354 351 349 349 345 340 334 329 324 319 314 311 309 308 307 304 303 299 297 297 293 294 295
351 352 352 353 354 354 355 355 354 355 356 351 352 352 357 360 1 359 355 353 348 345 341 338 338 336 331 326 321 317 314 312 310 308 306 303 301 299 295 293 298 295 293
348 349 350 352 354 353 354 355 355 353 353 352 352 353 354 356 355 356 353 351 348 344 341 337 332 329 327 323 319 315 311 308 307 306 303 301 299 298 296 293 291 292 294
346 348 350 351 353 353 354 354 352 351 352 353 350 349 346 347 350 349 349 351 351 348 340 335 328 324 322 320 317 314 311 307 303 301 301 300 297 296 295 294 292 291 294
346 348 350 352 352 353 351 352 351 350 349 352 354 351 345 342 341 347 344 340 341 337 334 331 327 323 321 319 318 316 313 309 304 300 298 298 298 295 293 293 290 290 289
347 350 350 350 351 352 350 349 352 350 350 348 350 351 348 343 339 336 341 337 333 330 330 330 327 324 321 321 320 319 316 311 308 304 299 295 295 295 292 290 290 288 289
346 347 348 349 350 350 350 349 349 349 349 348 347 347 347 345 341 335 330 332 330 331 329 328 326 325 323 320 317 315 312 308 304 301 299 298 294 293 292 290 289 287 286
344 346 348 348 348 348 347 348 349 349 349 349 348 346 343 339 336 333 329 329 328 326 326 327 325 325 322 321 317 314 311 308 304 300 298 296 293 291 290 289 289 287 286
340 343 346 345 345 348 347 348 349 349 348 346 345 343 340 338 336 333 329 326 326 322 321 323 323 322 320 317 315 313 309 306 303 301 298 296 294 291 288 289 287 285 285
339 343 344 345 345 346 347 348 347 347 346 344 342 340 338 334 331 328 327 325 322 320 317 318 322 322 319 316 313 311 310 308 305 301 299 297 295 293 290 286 285 285 283
340 341 342 342 344 344 345 345 344 343 342 340 338 336 334 330 328 325 323 321 320 318 314 321 321 322 318 316 317 314 312 308 305 304 302 300 298 295 293 291 288 285 282
340 340 340 341 341 342 342 342 340 339 337 337 335 332 330 327 326 325 325 324 321 317 315 320 318 315 316 317 317 316 314 311 310 308 305 302 300 298 296 293 291 288 286
339 339 339 339 339 339 339 337 337 337 335 334 332 329 327 326 326 326 326 326 322 320 315 316 319 318 316 316 316 316 316 314 312 309 306 305 304 300 297 295 293 290 288
339 338 338 338 337 336 337 335 335 335 334 332 330 328 327 328 327 328 327 324 322 321 318 316 319 319 319 319 317 315 315 315 313 312 309 306 304 301 299 297 294 291 289
339 339 339 337 337 337 336 336 335 332 331 328 328 327 326 325 323 323 321 320 320 320 319 317 317 319 318 319 317 318 316 316 315 312 310 307 305 302 300 297 295 293 291
341 339 338 338 338 338 336 334 332 330 328 326 324 322 321 319 318 317 316 314 315 314 315 314 314 315 316 317 316 313 311 315 311 312 309 307 304 302 301 300 297 294 291
341 341 340 339 338 336 334 332 330 328 326 324 322 320 318 315 313 311 310 309 309 309 309 310 310 311 313 314 314 314 311 310 309 310 307 308 306 304 301 298 296 295 293
344 343 341 338 335 334 332 330 328 325 324 322 319 318 316 314 311 308 305 303 302 304 304 305 306 306 308 310 312 312 311 310 307 312 308 303 304 300 301 300 296 295 293
345 342 340 338 334 333 331 329 327 325 323 321 319 317 315 313 310 307 305 302 300 299 299 301 302 303 306 308 309 309 309 309 308 309 307 301 303 298 298 298 297 297 294
344 341 338 336 334 332 331 329 327 325 323 321 320 318 316 313 311 308 305 302 301 300 300 300 300 302 304 307 308 308 308 308 309 310 310 302 305 300 300 298 298 296 294
342 340 338 336 334 333 332 330 329 327 326 324 323 322 320 317 314 310 305 302 301 300 301 300 300 302 303 305 308 310 309 309 307 308 311 306 307 304 303 302 301 299 295
340 339 337 337 335 333 334 334 333 331 329 328 327 326 324 322 318 314 309 305 303 303 304 304 304 305 306 307 309 309 309 307 308 308 315 311 309 310 304 309 311 309 304